This demonstration page uses our WeatherBlox Daily Observations layout. Learn more.

Hourly Observations for May 17, 2017

Temp ( °F °C ) Dew Point ( °F °C ) Humidity (%) Winds ( mph kmh ) Pressure ( in mb ) Visibility ( mi km ) Precip ( " mm )
12:15 am 00:15 Cloudy with Heavy Rain 56 13.5 54 12.1 91 91 NNW 10 17 29.56 1001 4 6.437376 0.11 2.794
12:35 am 00:35 Cloudy with Rain 56 13.3 54 12 92 92 N 13 20 29.53 1000 10 16.09344 0.17 4.318
12:55 am 00:55 Cloudy with Light Rain 56 13.1 53 11.8 92 92 NNE 25 41 29.47 998 7 11.265408 0.21 5.334
1:15 am 01:15 Mostly Cloudy 55 13 52 11.3 90 90 N 18 30 29.44 997 10 16.09344 0 0
1:35 am 01:35 Clear 55 12.8 52 11 89 89 NNE 15 24 29.44 997 10 16.09344 0 0
1:55 am 01:55 Clear 55 12.8 52 11 89 89 NNE 12 19 29.44 997 10 16.09344 0 0
2:15 am 02:15 Clear 55 12.6 52 11 90 90 N 10 17 29.41 996 10 16.09344 0 0
2:35 am 02:35 Clear 54 12.3 51 10.6 89 89 NE 3 6 29.44 997 10 16.09344 0 0
2:55 am 02:55 Clear 53 11.9 51 10.4 91 91 Calm 29.44 997 10 16.09344 0 0
3:15 am 03:15 Clear 52 11 50 9.8 92 92 Calm 29.47 998 10 16.09344 0 0
3:35 am 03:35 Clear 52 11.1 50 10.1 94 94 W 10 17 29.47 998 10 16.09344 0 0
3:55 am 03:55 Mostly Cloudy 53 11.5 51 10.4 93 93 W 6 9 29.44 997 10 16.09344 0 0
4:15 am 04:15 Cloudy 54 12 52 11 94 94 W 7 11 29.44 997 10 16.09344 0 0
4:35 am 04:35 Cloudy 54 12 51 10.8 92 92 W 5 7 29.44 997 10 16.09344 0 0
4:55 am 04:55 Cloudy 54 12.2 52 11 92 92 NNW 6 9 29.41 996 10 16.09344 0 0
5:15 am 05:15 Cloudy 55 12.5 52 11.2 92 92 Calm 29.44 997 10 16.09344 0 0
5:35 am 05:35 Cloudy 55 12.6 52 11.3 92 92 NE 5 7 29.41 996 10 16.09344 0 0
5:55 am 05:55 Cloudy 54 12.3 52 11.1 92 92 NE 6 9 29.41 996 10 16.09344 0 0
6:15 am 06:15 Partly Cloudy 54 12.1 52 11 93 93 E 3 6 29.41 996 10 16.09344 0 0
6:35 am 06:35 Mostly Cloudy 54 12.2 52 11 92 92 WNW 3 6 29.41 996 10 16.09344 0 0
6:55 am 06:55 Cloudy with Rain 54 12.3 52 11.2 93 93 N 5 7 29.41 996 7 11.265408 0.01 0.254
7:15 am 07:15 Cloudy with Light Rain 55 12.5 53 11.5 94 94 NNW 10 17 29.38 995 10 16.09344 0.03 0.762
7:35 am 07:35 Partly Cloudy 55 12.6 53 11.5 93 93 NNW 8 13 29.38 995 10 16.09344 0.03 0.762
7:55 am 07:55 Mostly Cloudy 55 12.8 53 11.7 93 93 NNW 12 19 29.38 995 10 16.09344 0.03 0.762
8:15 am 08:15 Cloudy with Light Rain 55 13 54 12 94 94 N 22 35 29.32 993 10 16.09344 0 0
8:35 am 08:35 Partly Cloudy with Thunderstorms 56 13.1 53 11.8 92 92 NNE 15 24 29.32 993 10 16.09344 0 0
8:55 am 08:55 Partly Cloudy 56 13.5 54 12 91 91 NW 3 6 29.35 994 10 16.09344 0 0
9:15 am 09:15 Cloudy 56 13.6 53 11.5 87 87 Calm 29.38 995 10 16.09344 0 0
9:35 am 09:35 Cloudy 57 13.7 53 11.7 88 88 Calm 29.38 995 10 16.09344 0 0
9:55 am 09:55 Cloudy 56 13.6 53 11.7 88 88 Calm 29.38 995 10 16.09344 0 0
10:15 am 10:15 Cloudy with Heavy Rain 56 13.6 53 11.6 88 88 Calm 29.38 995 4 6.437376 0.03 0.762
10:35 am 10:35 Cloudy with Rain 56 13.5 54 12.1 91 91 NNW 7 11 29.38 995 5 8.04672 0.06 1.524
10:55 am 10:55 Cloudy with Light Rain 56 13.1 53 11.8 92 92 N 6 9 29.38 995 5 8.04672 0.1 2.54
11:15 am 11:15 Cloudy with Heavy Rain 55 13 53 11.9 93 93 N 6 9 29.38 995 4 6.437376 0.08 2.032
11:35 am 11:35 Cloudy with Heavy Rain 55 13 54 12 94 94 NNW 5 7 29.38 995 3 4.828032 0.22 5.588
11:55 am 11:55 Cloudy with Heavy Rain 55 13 54 12 94 94 NW 3 6 29.38 995 2 3.218688 0.33 8.382
12:15 pm 12:15 Cloudy with Rain 56 13.5 55 12.5 94 94 NW 5 7 29.38 995 5 8.04672 0.04 1.016
12:35 pm 12:35 Cloudy with Light Rain 57 14.1 55 12.8 92 92 NW 7 11 29.35 994 10 16.09344 0.05 1.27
12:55 pm 12:55 Cloudy 58 14.7 55 12.7 88 88 WNW 6 9 29.35 994 10 16.09344 0.05 1.27
1:15 pm 13:15 Cloudy 59 15 55 12.7 86 86 WNW 9 15 29.35 994 10 16.09344 0 0
1:35 pm 13:35 Cloudy 61 16.2 55 13 81 81 WNW 12 19 29.35 994 10 16.09344 0 0
1:55 pm 13:55 Cloudy with Light Rain 58 14.3 55 12.9 91 91 NW 15 24 29.41 996 3 4.828032 0.03 0.762
2:15 pm 14:15 Cloudy 60 15.3 55 12.7 85 85 NW 21 33 29.38 995 10 16.09344 0.01 0.254
2:35 pm 14:35 Cloudy 59 15.1 54 12.3 83 83 NW 21 33 29.38 995 10 16.09344 0.01 0.254
2:55 pm 14:55 Cloudy 59 15.2 53 11.8 80 80 NW 24 39 29.38 995 10 16.09344 0.01 0.254
3:15 pm 15:15 Cloudy 60 15.3 54 12 81 81 NW 20 31 29.41 996 10 16.09344 0 0
3:35 pm 15:35 Cloudy 60 15.8 53 11.9 78 78 NW 24 39 29.41 996 10 16.09344 0 0
3:55 pm 15:55 Cloudy 60 15.8 53 11.7 77 77 NW 24 39 29.41 996 10 16.09344 0 0
4:15 pm 16:15 Cloudy 62 16.5 53 11.8 74 74 NNW 26 43 29.44 997 10 16.09344 0 0
4:35 pm 16:35 Cloudy 62 16.4 53 11.8 74 74 NNW 22 35 29.44 997 10 16.09344 0 0
4:55 pm 16:55 Cloudy 60 15.5 52 11 75 75 NNW 22 35 29.44 997 10 16.09344 0 0
5:15 pm 17:15 Cloudy 61 16 52 10.9 72 72 NNW 22 35 29.47 998 10 16.09344 0 0
5:35 pm 17:35 Cloudy 61 16 51 10.7 71 71 NNW 17 28 29.47 998 10 16.09344 0 0
5:55 pm 17:55 Cloudy 60 15.6 51 10.6 72 72 NNW 18 30 29.53 1000 10 16.09344 0 0
6:15 pm 18:15 Cloudy 60 15.8 52 11.1 74 74 NNW 16 26 29.5 999 10 16.09344 0 0
6:35 pm 18:35 Cloudy 60 15.7 51 10.5 71 71 NNW 16 26 29.5 999 10 16.09344 0 0
6:55 pm 18:55 Cloudy 60 15.6 51 10.5 72 72 NNW 16 26 29.56 1001 10 16.09344 0 0
7:15 pm 19:15 Cloudy 60 15.6 50 10.2 70 70 NNW 14 22 29.56 1001 10 16.09344 0 0
7:35 pm 19:35 Mostly Cloudy 59 15.1 50 10.1 72 72 NNW 14 22 29.59 1002 10 16.09344 0 0
7:55 pm 19:55 Cloudy 59 15 50 10.2 73 73 NNW 13 20 29.59 1002 10 16.09344 0 0
8:15 pm 20:15 Cloudy 58 14.6 50 10.1 75 75 NW 17 28 29.62 1003 10 16.09344 0 0
8:35 pm 20:35 Cloudy 57 14.1 50 9.8 76 76 NNW 14 22 29.65 1004 10 16.09344 0 0
8:55 pm 20:55 Partly Cloudy 56 13.5 49 9.3 76 76 N 14 22 29.65 1004 10 16.09344 0 0
9:15 pm 21:15 Partly Cloudy 55 12.7 49 9.4 81 81 NNW 10 17 29.68 1005 10 16.09344 0 0
9:35 pm 21:35 Mostly Cloudy 55 12.8 49 9.7 82 82 NNW 9 15 29.71 1006 10 16.09344 0 0
9:55 pm 21:55 Cloudy 56 13.1 49 9.6 79 79 NNW 9 15 29.71 1006 10 16.09344 0 0
10:15 pm 22:15 Cloudy 55 13 50 9.8 81 81 NNW 13 20 29.74 1007 10 16.09344 0 0
10:35 pm 22:35 Cloudy 55 12.8 49 9.5 81 81 N 15 24 29.74 1007 10 16.09344 0 0
10:55 pm 22:55 Cloudy 54 12.3 49 9.3 82 82 N 14 22 29.74 1007 10 16.09344 0 0
11:15 pm 23:15 Cloudy 54 12 48 8.9 82 82 N 15 24 29.74 1007 10 16.09344 0 0
11:35 pm 23:35 Cloudy 53 11.7 48 8.9 83 83 N 20 31 29.74 1007 10 16.09344 0 0
11:55 pm 23:55 Mostly Cloudy 52 11 47 8.1 82 82 N 20 31 29.74 1007 10 16.09344 0 0

Powered by AerisWeather